Starlink 11423

operational
NORAD ID: 61950 Int'l Des: 2024-209 Owner: SPXS Country: US Constellation: starlink
LEOCIRCULAR

About Starlink 11423

Description loading...

Live Position

Loading 3D Globe...

Upcoming Passes

Altitude History

Altitude vs Time

uPlot chart will show altitude changes over time

Two-Line Element Set

1 61950U 24209M 26094.83079323 .00153822 00000-0 12481-2 0 9993
2 61950 53.1582 242.3960 0000955 162.4168 197.6883 15.69768576 80820
Epoch: Apr 4, 2026 • Age: 11 hours

Current Status

Altitude 363.7 km
Velocity 7.69 km/s
Sub-Earth Point -14.53°S, 62.86°W
Launch Date Nov 14, 2024
Age 1.3 years
Type internet

Technical Details

Classification Payload
Mass 960.00 kg
Dry Mass 910.00 kg
Total Mass 960.00 kg
Length 0.30 m
Diameter 4.10 m
Span 29.00 m
Shape Box + pan
Manufacturer SPXS
Bus Type Starlink V2MD
Phase Status In Orbit
Owner/State SPXS/US

Large Constellations

Loading constellations...